Location: Dortmund
(51.5019°N, 7.6520°E)
Time: 18:52:23
(UTC+02:00)

ISS - Visible Passes

Search period start: 26 March 2017 00:00
Search period end: 05 April 2017 01:00
Orbit: 399 x 409 km, 51.6° (Epoch: 27 March)

Date Brightness Start Highest point End Pass type
(mag) Time Alt. Az. Time Alt. Az. Time Alt. Az.
27 Mar -1.2 21:51:02 10° SSW 21:51:11 11° SSW 21:51:11 11° SSW visible
28 Mar -2.0 20:59:31 10° S 21:01:31 15° SE 21:01:52 15° SE visible
28 Mar -1.0 22:34:16 10° WSW 22:34:35 12° WSW 22:34:35 12° WSW visible
29 Mar -3.3 21:42:05 10° SW 21:45:00 38° SSE 21:45:00 38° SSE visible
30 Mar -2.7 20:50:05 10° SSW 20:52:52 26° SSE 20:55:12 13° E visible
30 Mar -2.6 22:25:47 10° WSW 22:27:53 36° WSW 22:27:53 36° WSW visible
31 Mar -3.8 21:33:26 10° WSW 21:36:39 61° SSE 21:37:53 33° E visible
31 Mar -1.1 23:09:49 10° W 23:10:33 16° W 23:10:33 16° W visible
01 Apr -3.4 20:41:09 10° SW 20:44:17 44° SSE 20:47:25 10° E visible
01 Apr -3.8 22:17:22 10° W 22:20:25 76° W 22:20:25 76° W visible
02 Apr -3.9 21:24:55 10° WSW 21:28:11 83° S 21:30:10 22° E visible
02 Apr -1.7 23:01:23 10° W 23:02:49 24° W 23:02:49 24° W visible
03 Apr -4.0 22:08:55 10° W 22:12:12 86° N 22:12:30 71° E visible
04 Apr -3.8 21:16:25 10° W 21:19:42 86° N 21:22:07 17° E visible
04 Apr -2.2 22:52:54 10° W 22:54:46 30° W 22:54:46 30° W visible
